#timestamp,LO_Frequency,Hit,StdDev 
1584781215.7,286046996.8,N
1584781235.5,286046998.0,N
1584781255.4,286046999.6,N
1584781275.2,286046991.6,N
1584781295.1,286046995.6,N
1584781296.0,286046995.6,N
1584781315.8,286046997.9,N
1584781335.6,286046996.8,N
1584781355.5,286047000.3,N
1584781375.3,286046999.5,N
1584781395.2,286046997.8,N
1584781415.9,286046998.3,N
1584781435.7,286046998.1,N
1584781455.6,286046998.1,N
1584781475.4,286046998.7,N
1584781495.3,286046996.6,N
1584781515.1,286046997.0,N
1584781516.0,286046997.0,N
1584781535.8,286046994.9,N
1584781555.7,286046994.9,N
1584781575.5,286046997.1,N
1584781595.3,286046998.7,N
1584781615.2,286047000.5,N
1584781635.0,286047000.2,N
1584781635.9,286047000.2,N
1584781655.8,286046999.7,N
1584781675.6,286046999.4,N
1584781695.4,286046998.2,N
1584781715.3,286046999.3,N
1584781735.1,286046997.6,N
1584781755.9,286046996.9,N
1584781775.7,286046998.5,N
1584781795.5,286046998.7,N
1584781815.4,286046998.9,N
1584781835.2,286046997.8,N
1584781855.0,286046994.3,Y
1584781855.9,286046994.3,P
1584781875.8,286046998.8,N
1584781895.6,286046998.3,N
1584781915.5,286046999.4,N
1584781935.3,286046996.6,N
1584781955.1,286046997.8,N
1584781975.9,286047000.6,N
1584781995.4,286046999.7,N
1584782015.2,286047000.8,N
1584782035.0,286047001.1,N
1584782035.9,286047001.1,N
1584782055.8,286047001.0,N
1584782075.6,286046998.1,N
1584782095.5,286046999.7,N
1584782115.3,286047002.4,N
1584782135.1,286047000.4,N
1584782155.9,286047000.3,N
1584782175.7,286047002.6,N
1584782195.6,286047004.2,N
1584782215.4,286047002.6,N
1584782235.2,286047002.0,N
1584782255.1,286047000.4,N
1584782256.0,286047000.4,N
1584782275.8,286047001.8,N
1584782295.6,286047000.2,N
1584782315.5,286047002.1,N
1584782335.3,286047001.3,N
1584782355.2,286047001.8,N
1584782375.9,286047002.1,N
1584782395.7,286047000.8,N
1584782415.6,286046998.4,N
1584782435.4,286047002.7,N
1584782455.2,286047002.3,N
1584782475.1,286047002.8,N
1584782476.0,286047002.8,N
1584782495.8,286047001.2,N
1584782515.7,286047000.8,N
1584782535.5,286047000.0,N
1584782555.3,286047001.9,N
1584782575.2,286047001.5,N
1584782595.0,286047001.0,N
1584782595.9,286047001.0,N
1584782615.8,286047002.6,N
1584782635.6,286047004.4,Y
1584782655.4,286047002.6,P
1584782675.3,286047002.2,P
1584782695.1,286046999.7,N
1584782715.9,286047002.4,N
1584782735.7,286047000.2,N
1584782755.5,286046999.8,N
1584782775.4,286047000.5,N
1584782795.2,286047002.7,N
1584782815.0,286047001.1,N
1584782815.9,286047001.1,N
1584782835.8,286046999.5,N
1584782855.6,286046999.2,N
1584782875.5,286046996.5,N
1584782895.3,286046997.2,N
1584782915.1,286046999.5,N
1584782935.9,286046999.4,N
1584782955.7,286046995.2,N
1584782975.6,286046997.3,N
1584782995.4,286046998.4,N
1584783015.2,286046997.1,N
1584783035.1,286046999.3,N
1584783036.0,286046999.3,N
1584783055.8,286046999.4,N
1584783075.6,286047000.8,N
1584783095.5,286046998.5,N
1584783115.3,286047000.6,N
1584783135.2,286046998.1,N
1584783155.9,286047000.9,N
1584783175.7,286046999.0,N
1584783195.6,286047001.0,N
1584783215.4,286047000.7,N
1584783235.3,286047000.3,N
1584783255.1,286046998.1,N
1584783256.0,286046998.1,N
1584783275.8,286046998.2,N
1584783295.7,286046999.9,N
1584783315.5,286047000.7,N
1584783335.3,286046998.7,N
1584783355.2,286046997.2,N
1584783375.0,286046996.1,N
1584783375.9,286046996.1,N
1584783395.8,286046997.1,N
1584783415.6,286046999.5,N
1584783435.4,286046996.8,N
1584783455.3,286046997.0,N
1584783475.1,286046997.4,N
1584783495.9,286046996.9,N
1584783515.7,286046998.3,N
1584783535.5,286046998.1,N
1584783555.4,286046998.9,N
1584783575.2,286046999.2,N
1584783595.0,286047001.2,N
1584783595.9,286047001.2,N
1584783615.8,286046999.1,N
1584783635.6,286046997.0,N
1584783655.5,286046997.9,N
1584783675.3,286046996.5,N
1584783695.1,286046997.3,N
1584783715.9,286046997.0,N
1584783735.7,286046997.1,N
1584783755.6,286046999.2,N
1584783775.4,286047000.9,N
1584783795.2,286047000.5,N
1584783815.1,286047000.0,N
1584783816.0,286047000.0,N
1584783835.8,286047001.3,N
1584783855.7,286047000.6,N
1584783875.5,286047001.9,N
1584783895.3,286047001.5,N
1584783915.2,286047000.6,N
1584783935.0,286047000.7,N
1584783935.9,286047000.7,N
1584783955.7,286047000.8,N
1584783975.6,286046998.3,N
1584783995.4,286046998.9,N
1584784015.3,286046998.7,N
1584784035.1,286047011.9,Y
1584784055.8,286047001.9,P
1584784075.7,286047000.9,N
1584784095.5,286046998.8,N
1584784115.4,286047000.0,N
1584784135.2,286047000.3,N
1584784155.0,286047002.4,N
1584784155.9,286047002.4,N
1584784175.8,286047003.9,N
1584784195.6,286047004.2,N
1584784215.5,286047002.0,N
1584784235.3,286047000.6,N
1584784255.1,286047002.8,N
1584784275.9,286047000.4,N
1584784295.7,286047000.2,N
1584784315.6,286047001.2,N
1584784335.4,286047000.3,N
1584784355.2,286047000.0,N
1584784375.1,286046999.9,N
1584784376.0,286046999.9,N
1584784395.8,286046998.7,N
1584784415.7,286046998.2,N
1584784435.5,286047000.6,N
1584784455.3,286046998.4,N
1584784475.2,286046997.8,N
1584784495.0,286046995.5,N
1584784495.9,286046995.5,N
1584784515.8,286046995.0,N
1584784535.6,286046997.4,N
1584784555.4,286046997.3,N
1584784575.3,286046993.6,N
1584784595.1,286046992.6,N
1584784615.9,286046991.3,Y
1584784635.7,286046990.1,P
1584784655.5,286046992.6,N
1584784675.4,286046992.0,N
1584784695.2,286046988.6,Y
1584784715.1,286046995.4,P
1584784716.0,286046995.4,P
1584784735.8,286046996.7,P
1584784755.6,286046999.6,N
1584784775.5,286046998.1,N
1584784795.3,286046998.5,N
